Location: Mexico
(19.4000°N, 99.1500°W)
Time: 14:07:33
(UTC-06:00)

ISS - Pass Details

Date: 24 March 2017
Orbit: 399 x 409 km, 51.6° (Epoch: 24 March)

Event Time Altitude Azimuth Distance (km) Brightness Sun altitude
Rises 19:15:46 0° 194° (SSW) 2,289 0.1 -7.2°
Reaches altitude 10° 19:18:07 10° 178° (S) 1,435 -1.1 -7.7°
Maximum altitude 19:20:41 22° 125° (SE) 929 -2.5 -8.3°
Enters shadow 19:23:06 11° 74° (ENE) 1,394 -1.7 -8.9°
